Regional Weather Roundup
Issued by NWS

Home | Current Version | Previous Version | Text Only | Print | Product List | Glossary Off
Versions: 1 2 3 4 5 6 7 8 9 10 11 12 13 14 15 16 17 18 19 20 21 22 23 24 25 26 27 28 29 30 31 32 33 34 35 36 37 38 39 40 41 42 43 44 45 46 47 48 49 50

000
ASUS45 KABQ 241201
RWRNM
NEW MEXICO REGIONAL WEATHER ROUNDUP
NATIONAL WEATHER SERVICE ALBUQUERQUE NM
500 AM MST FRI FEB 24 2017

NOTE: "FAIR" MEANS FEW OR NO CLOUDS BELOW 12,000 FEET AGL WITH NO
       SIGNIFICANT WEATHER OR OBSTRUCTIONS TO VISION.

      THIS PRODUCT IS RELEASED AS TWO VERSIONS.  ONE VERSION NEAR
      THE TOP OF THE HOUR CONTAINING PRELIMINARY DATA FROM ALBUQUERQUE
      AND OTHER STATIONS.  A FINAL VERSION WITH ADDITIONAL DATA IS
      ISSUED ABOUT 10 MINUTES AFTER THE HOUR.

NMZ501-503-504-510>518-241300-
NORTHWEST PLATEAU/NORTHCENTRAL MOUNTAINS

CITY           SKY/WX    TMP DP  RH WIND       PRES   REMARKS
FARMINGTON     CLOUDY    29  12  49 W8        29.86R WCI  21
6HR MIN TEMP:  28; 6HR MAX TEMP:  30;

LOS ALAMOS     FAIR      24  11  57 W8        29.83R WCI  15
SANTA FE       FAIR      22   9  57 NW5       29.83R WCI  16
6HR MIN TEMP:  20; 6HR MAX TEMP:  35;

TAOS           FAIR      19   0  42 W9        29.81R WCI   9
ANGEL FIRE     CLOUDY    18   5  56 SW9       29.76R WCI   7

$$
NMZ402-403-502-505>509-241300-
WESTCENTRAL MOUNTAINS/SOUTHWEST MOUNTAINS

CITY           SKY/WX    TMP DP  RH WIND       PRES   REMARKS
GALLUP         FAIR      22   5  48 SW7       29.91R WCI  13
6HR MIN TEMP:  22; 6HR MAX TEMP:  32;

GRANTS         FAIR      23  12  61 NW9       29.90R WCI  13
SILVER CITY    FAIR      28  14  55 NW8       29.94R WCI  20

$$
NMZ407-409-411-412-241300-
SOUTHERN DESERTS

CITY           SKY/WX    TMP DP  RH WIND       PRES   REMARKS
DEMING         FAIR      35  15  44 W6        29.96R WCI  30
6HR MIN TEMP:  33; 6HR MAX TEMP:  42;

LAS CRUCES     FAIR      36  11  36 NW9       29.94R WCI  29
HOLLOMAN AFB   FAIR      41   9  26 W12       29.94R
ALAMOGORDO     FAIR      41   7  24 S5        29.92R
T OR C         FAIR      36   8  31 NW10      29.90R WCI  28
6HR MIN TEMP:  35; 6HR MAX TEMP:  45;


$$
NMZ519>523-241300-
CENTRAL VALLEYS/CENTRAL HIGHLANDS

CITY           SKY/WX    TMP DP  RH WIND       PRES   REMARKS
ALBUQUERQUE    FAIR      33  18  53 NW7       29.88R WCI  27
6HR MIN TEMP:  32; 6HR MAX TEMP:  39;

DOUBLE EAGLE   CLOUDY    29  18  62 W3        29.88R
MORIARTY ARPT  MOCLDY    26  13  59 CALM      29.86R
6HR MIN TEMP:  24; 6HR MAX TEMP:  36;

CLINES CORNERS FAIR      20   9  62 W9        29.82R WCI   9
6HR MIN TEMP:  20; 6HR MAX TEMP:  29;

BELEN          FAIR      29  17  61 NW8       29.91R WCI  21
6HR MIN TEMP:  28; 6HR MAX TEMP:  36;

SOCORRO        FAIR      37   5  26 W12       29.91R WCI  29
6HR MIN TEMP:  36; 6HR MAX TEMP:  44;


$$
NMZ524>526-539-540-241300-
SOUTHCENTRAL MOUNTAINS

CITY           SKY/WX    TMP DP  RH WIND       PRES   REMARKS
RUIDOSO        NOT AVBL

$$
NMZ527>531-241300-
NORTHEAST HIGHLANDS/NORTHEAST PLAINS

CITY           SKY/WX    TMP DP  RH WIND       PRES   REMARKS
LAS VEGAS      FAIR      24   5  44 NW6       29.78R WCI  17
6HR MIN TEMP:  20; 6HR MAX TEMP:  34;

RATON          FAIR      14   8  77 NE6       29.75R WCI   5
6HR MIN TEMP:  13; 6HR MAX TEMP:  31;

CLAYTON        FAIR      21  17  84 N13       29.81R WCI   9
6HR MIN TEMP:  21; 6HR MAX TEMP:  31;


$$
NMZ532>537-241300-
EASTCENTRAL PLAINS

CITY           SKY/WX    TMP DP  RH WIND       PRES   REMARKS
TUCUMCARI      FAIR      25  22  88 E6        29.84R WCI  18
6HR MIN TEMP:  25; 6HR MAX TEMP:  44;

CANNON AFB     NOT AVBL
CLOVIS AIRPORT FAIR      27  21  80 NE6       29.83R WCI  20

$$
NMZ028-029-538-241300-
SOUTHEAST PLAINS

CITY           SKY/WX    TMP DP  RH WIND       PRES   REMARKS
ROSWELL        FAIR      35   9  33 NE3         N/A
6HR MIN TEMP:  33; 6HR MAX TEMP:  55;

ARTESIA        FAIR      36   7  30 CALM      29.85R
CARLSBAD       FAIR      53   7  15 W36G46    29.77R
6HR MIN TEMP:  53; 6HR MAX TEMP:  59;

HOBBS          FAIR      36   9  32 N5        29.85R WCI  32


$$




USA.gov is the U.S. government's official web portal to all federal, state and local government web resources and services.